Regional Weather Roundup
Issued by NWS

Home | Current Version | Previous Version | Graphics & Text | Print | Product List | Glossary On
Versions: 1 2 3 4 5 6 7 8 9 10 11 12 13 14 15 16 17 18 19 20 21 22 23 24 25 26 27 28 29 30 31 32 33 34 35 36 37 38 39 40 41 42 43 44 45 46 47 48 49 50
575
ASUS43 KMPX 160010
RWRMN
WEATHER ROUNDUP FOR MINNESOTA
NATIONAL WEATHER SERVICE TWIN CITIES/CHANHASSEN MN
600 PM CST FRI DEC 15 2017


NOTE: "FAIR" INDICATES FEW OR NO CLOUDS BELOW 12,000 FEET WITH NO
SIGNIFICANT WEATHER AND/OR OBSTRUCTIONS TO VISIBILITY. N/A MEANS
CURRENT SKY AND/OR WEATHER CONDITIONS ARE NOT AVAILABLE.

MNZ060>063-068>070-160100-
   Twin Cities Metro

CITY           SKY/WX    TMP DP  RH WIND       PRES   REMARKS
TWIN CITIES    LGT SNOW  27  23  85 SE6       29.76F FOG     WCI  20
6HR MIN TEMP:  25; 6HR MAX TEMP:  28; 6HR PCP: TRACE;

ST PAUL        CLOUDY    26  20  77 E7        29.78F WCI  18
CRYSTAL        LGT SNOW  26  19  74 CALM      29.75F
BLAINE         CLOUDY    27  21  80 CALM      29.75F
LAKEVILLE      PTCLDY    27  25  93 CALM      29.75F
EDEN PRAIRIE   CLOUDY    28  24  85 SE7       29.73F WCI  21
6HR MIN TEMP:  27; 6HR MAX TEMP:  29;

SOUTH ST PAUL  PTCLDY    26  20  78 CALM      29.77F
LAKE ELMO      MOCLDY    27  19  74 E3        29.78S
$$
MNZ001>005-007-008-013>017-022>024-027-028-160100-
   Northwest Minnesota

CITY           SKY/WX    TMP DP  RH WIND       PRES   REMARKS
BEMIDJI        LGT SNOW  14  10  85 SE6       29.68S WCI   5
HALLOCK        LGT SNOW  18  16  93 E13       29.67F WCI   4
ROSEAU         CLOUDY    12   9  85 E10       29.72S WCI  -1
WARROAD        FLURRIES  10   7  85 E12       29.73S WCI  -4
THIEF RVR FALL LGT SNOW  16  13  88 E13       29.68S FOG     WCI   2
CROOKSTON      LGT SNOW  21  19  93 SE10      29.67F WCI  10
FOSSTON        LGT SNOW  18  14  86 E7        29.66F WCI   8
DETROIT LAKES  LGT SNOW  25  21  86 SE7       29.66S WCI  17
MOORHEAD       LGT SNOW  27  25  93 CALM      29.65F
PARK RAPIDS    LGT SNOW  18  14  84 SE5       29.67S FOG     WCI  11
MAHNOMEN       FLURRIES  21  17  85 SE7       29.65F WCI  12
$$
MNZ006-009>011-018-025>026-160100-
   North Central Minnesota

CITY           SKY/WX    TMP DP  RH WIND       PRES   REMARKS
BAUDETTE       CLOUDY    10   5  80 E8        29.73R WCI  -2
FLAG ISLAND    FLURRIES   9   3  78 CALM      29.74S
INTL FALLS     CLOUDY     6   1  80 NE5       29.75F WCI  -3
6HR MIN TEMP:   6; 6HR MAX TEMP:  11; 6HR PCP: TRACE;

WASKISH        FLURRIES  12   9  85 E7        29.72S WCI   2
BIG FORK       FLURRIES  12   7  79 CALM      29.72S
LONGVILLE      CLOUDY    18  12  79 CALM      29.71S
GRAND RAPIDS   FLURRIES  14   8  77 CALM      29.73F
CRANE LAKE     CLOUDY    -4  -6  92 CALM      29.79R
ORR            CLOUDY     9   1  72 CALM      29.71S
COOK           CLOUDY     9   3  78 CALM      29.74S
WALKER         LGT SNOW  15  11  85 E3        29.69F
$$
MNZ012-019>021-037-160100-
   Northeast Minnesota

CITY           SKY/WX    TMP DP  RH WIND       PRES   REMARKS
DULUTH         CLOUDY    11   5  77 NE3       29.73S
6HR MIN TEMP:  10; 6HR MAX TEMP:  13;

ELY            CLOUDY    -2  -6  84 CALM      29.74R
HIBBING        CLOUDY    10   3  73 SE3       29.73S
EVELETH        CLOUDY    10   2  72 CALM      29.74S
DULUTH HARBOR  CLOUDY    18   9  68 CALM      29.81R
TWO HARBORS    CLOUDY    12   5  73 CALM      29.75S
SILVER BAY     CLOUDY     3   1  92 CALM      29.76R
GRAND MARAIS     N/A      3  -2  79 N3        29.82S
G MARAIS ARPRT PTCLDY    -6 -11  77 NW5       29.70F WCI -17
$$
MNZ029>031-032-039>041-046>048-054>057-064-160100-
   West Central Minnesota

CITY           SKY/WX    TMP DP  RH WIND       PRES   REMARKS
FERGUS FALLS   MIX PCPN  27  27 100 SE9       29.68F WCI  17
WHEATON        CLOUDY    30  28  93 SE9       29.67S WCI  22
MORRIS         CLOUDY    30  28  93 SE9       29.64F WCI  22
ALEXANDRIA     LGT SNOW  27  24  89 SE5       29.67F FOG     WCI  22
ELBOW LAKE     CLOUDY    28  27  96 SE7       29.65F FOG     WCI  20
WADENA         MIX PCPN  21  18  86 SE5       29.67F WCI  15
GLENWOOD       FLURRIES  27  27 100 SE7       29.67F WCI  19
APPLETON       CLOUDY    36  30  80 E6        29.65F
BENSON         CLOUDY    32  28  86 S9        29.69F WCI  24
ORTONVILLE     CLOUDY    32  28  86 SE6       29.65S WCI  26
MADISON        CLOUDY    36  32  87 SE6       29.65F
WILLMAR        FAIR      30  30 100 SE9       29.70F WCI  22
$$
MNZ033>034-036-042>043-049>051-058-059-160100-
   Central Minnesota

CITY           SKY/WX    TMP DP  RH WIND       PRES   REMARKS
ST CLOUD       FLURRIES  24  20  84 E5        29.73S WCI  18
6HR MIN TEMP:  21; 6HR MAX TEMP:  25; 6HR PCP: TRACE;

SAUK CENTRE    FLURRIES  26  23  87 SE3       29.69F
PAYNESVILLE    CLOUDY    28  27  95 SE8       29.70F WCI  20
AITKIN         FLURRIES  18  12  79 CALM      29.72R
PINE RIVER     MIX PCPN  18  12  79 MISG      29.75S
BRAINERD       LGT SNOW  20  15  81 CALM      29.71F
STAPLES        FLURRIES  19  16  86 E3        29.69F
LITTLE FALLS   FLURRIES  23  16  74 E3        29.72F
LITCHFIELD     CLOUDY    28  27  93 SE6       29.72S WCI  22
BUFFALO        CLOUDY    26  21  83 CALM      29.74F
MAPLE LAKE     CLOUDY    27  23  86 SE3       29.74S
HUTCHINSON     CLOUDY    29  27  92 E5        29.72F WCI  24
$$
MNZ037-044-045-052-053-160100-
   East Central Minnesota

CITY           SKY/WX    TMP DP  RH WIND       PRES   REMARKS
PRINCETON      LGT SNOW  23  18  80 E3        29.74S
MORA           CLOUDY    19  12  73 SE3       29.76F
CAMBRIDGE      FLURRIES  25  14  63 CALM      29.76F
RUSH CITY      CLOUDY    20  12  72 CALM      29.77F
MOOSE LAKE     CLOUDY    21  12  68 CALM      29.73F
HINCKLEY       CLOUDY    21  14  73 SE3       29.76F
CLOQUET        FLURRIES  16   7  67 CALM      29.74R
MCGREGOR       CLOUDY    19  14  79 CALM      29.73S
$$
MNZ071>073-080-081-089-090-097-098-160100-
   Southwest Minnesota

CITY           SKY/WX    TMP DP  RH WIND       PRES   REMARKS
MONTEVIDEO     CLOUDY    34  28  80 S6        29.66F WCI  29
GRANITE FALLS  CLOUDY    37  30  78 SE7       29.68F
CANBY          CLOUDY    38  30  72 S5        29.66F
MARSHALL       CLOUDY    37  27  67 S7        29.67F
REDWOOD FALLS  CLOUDY    35  30  82 S7        29.69F WCI  29
OLIVIA         CLOUDY    34  32  93 SE7       29.69F WCI  28
PIPESTONE      CLOUDY    34  25  69 SW10      29.67F WCI  26
WINDOM           N/A     37  21  52 SW8       29.71S
WORTHINGTON    CLOUDY    38  25  59 SW12      29.71F
JACKSON        CLOUDY    36  27  69 SW9       29.72S
SLAYTON        CLOUDY    36  28  72 S12       29.69F
$$
MNZ065>067-074>077-082>085-091>093-160100-
   South Central Minnesota

CITY           SKY/WX    TMP DP  RH WIND       PRES   REMARKS
MANKATO        CLOUDY    31  29  92 E8        29.74F WCI  23
NEW ULM        CLOUDY    34  28  80 SE5       29.72S WCI  30
ST JAMES       CLOUDY    36  27  69 S3        29.74S
FAIRMONT       CLOUDY    35  26  69 S7        29.73F WCI  29
GLENCOE        CLOUDY    29  28  96 E7        29.72F WCI  22
FARIBAULT      CLOUDY    30  27  86 CALM      29.75F
OWATONNA       CLOUDY    32  28  86 SE3       29.75S
WASECA         CLOUDY    32  30  93 E6        29.76S WCI  26
ALBERT LEA     CLOUDY    34  28  80 S3        29.74F
$$
MNZ078>079-086>088-094>096-160100-
   Southeast Minnesota

CITY           SKY/WX    TMP DP  RH WIND       PRES   REMARKS
ROCHESTER      CLOUDY    28  27  96 SE5       29.76F WCI  23
6HR MIN TEMP:  28; 6HR MAX TEMP:  31;

RED WING       FLURRIES  28  19  69 CALM      29.77F
STANTON        CLOUDY    30  26  86 CALM      29.75F
DODGE CENTER   CLOUDY    27  27 100 SE3       29.75F
WINONA         CLOUDY    32  28  86 CALM      29.81F
AUSTIN         CLOUDY    30  27  86 SE5       29.75F WCI  25
PRESTON        CLOUDY    29  26  88 SE3       29.77F
$$
ABBREVIATIONS USED IN REMARKS
   TC - TEMPERATURES IN CELSIUS
  WCI - WIND CHILL INDEX
   HX - HEAT INDEX
  VSB - VISIBILITY
$$




USA.gov is the U.S. government's official web portal to all federal, state and local government web resources and services.